Location: Córrego Montividiu
(13.2496°S, 48.8603°W)
Time: 11:53:27
(UTC+00:00)

SJ-12 - Pass Details

Date: 11 March 2026
Orbit: 514 x 521 km, 97.8° (Epoch: 22 April)

Event Time Altitude Azimuth Distance (km) Brightness Sun altitude
Rises 21:53:41 0° 174° (S) 2,656 7.3 -6.1°
Reaches altitude 10° 21:55:49 10° 177° (S) 1,762 6.4 -6.6°
Maximum altitude 21:59:34 61° 258° (WSW) 590 4.3 -7.5°
Drops below altitude 10° 22:03:16 10° 339° (NNW) 1,739 6.6 -8.4°
Sets 22:05:21 0° 342° (NNW) 2,618 7.4 -8.9°
